Date,TemperatureHighF,TemperatureAvgF,TemperatureLowF,DewpointHighF,DewpointAvgF,DewpointLowF,HumidityHigh,HumidityAvg,HumidityLow,PressureMaxIn,PressureMinIn,WindSpeedMaxMPH,WindSpeedAvgMPH,GustSpeedMaxMPH,PrecipitationSumIn
2013-1-1,51.8,48.3,44.6,50.9,43.8,32.3,98,85,59,30.10,29.93,6,2,8,0.16
2013-1-2,50.8,45.2,40.1,50.3,43.4,38.5,98,93,80,30.18,29.90,5,2,8,0.43
2013-1-3,45.8,40.5,33.4,39.4,36.8,32.1,96,87,63,30.25,30.12,3,1,6,0.00
2013-1-4,51.7,40.1,30.9,32.2,28.1,23.2,96,65,35,30.31,30.19,9,4,13,0.00
2013-1-5,53.1,41.1,29.1,30.7,26.5,22.5,79,57,36,30.39,30.26,7,2,11,0.00
2013-1-6,46.9,42.5,39.1,42.3,37.7,29.7,96,83,64,30.26,30.05,5,1,7,0.01
2013-1-7,46.2,37.9,36.3,37.7,33.2,30.5,95,83,64,30.39,30.16,5,2,7,0.00
2013-1-8,38.3,36.1,33.8,34.7,32.8,31.0,92,88,80,30.42,30.39,3,1,4,0.00
2013-1-9,68.5,53.8,39.3,53.8,47.0,37.2,95,79,56,30.43,30.34,5,1,8,0.00
2013-1-10,65.9,56.3,48.8,50.8,47.6,38.5,93,74,56,30.50,30.39,6,2,11,0.00
2013-1-11,52.7,49.0,42.6,52.1,45.1,34.0,99,88,57,30.43,30.14,4,2,6,0.24
2013-1-12,75.5,59.6,49.8,64.2,57.0,49.3,99,92,68,30.16,30.08,4,1,6,0.00
2013-1-13,75.2,62.9,52.3,64.1,58.7,51.8,99,87,64,30.13,30.03,8,2,14,0.00
2013-1-14,74.0,65.1,57.7,65.1,60.6,56.1,98,86,71,30.14,30.06,7,3,9,0.00
2013-1-15,64.3,49.1,46.2,61.0,47.8,45.1,98,95,89,30.19,30.03,10,4,17,0.00
2013-1-16,50.8,48.1,45.7,50.5,47.7,45.2,100,98,98,30.04,29.97,5,2,8,0.13
2013-1-17,52.1,47.2,34.7,51.8,46.9,33.9,100,99,97,30.12,29.85,11,4,18,0.89
2013-1-18,46.7,38.3,31.7,34.2,29.9,25.6,98,75,44,30.53,30.12,9,3,13,0.06
2013-1-19,55.2,40.2,27.6,36.9,29.3,25.0,90,67,38,30.51,30.16,7,2,10,0.00
2013-1-20,65.2,50.5,38.3,39.9,35.4,30.1,86,59,34,30.15,29.96,9,3,11,0.00
2013-1-21,60.5,48.0,33.2,35.0,30.5,22.0,86,53,32,30.07,29.86,8,3,10,0.00
2013-1-22,43.3,35.6,27.1,22.9,10.9,1.4,51,37,19,30.28,29.95,11,4,14,0.00
2013-1-23,41.2,31.4,19.8,21.2,11.7,5.4,73,45,28,30.38,30.07,8,3,10,0.00
2013-1-24,41.0,32.4,23.3,27.9,17.1,6.3,81,55,26,30.51,29.96,12,5,20,0.00
2013-1-25,27.0,24.1,19.7,26.4,16.4,7.3,99,73,45,30.52,30.12,4,1,7,0.00
2013-1-26,43.4,30.9,24.4,37.6,28.7,22.7,97,92,66,30.40,30.10,5,1,7,0.30
2013-1-27,43.1,33.1,27.2,32.5,28.6,26.2,97,85,59,30.59,30.39,5,2,9,0.03
2013-1-28,52.0,41.7,32.4,47.6,37.0,29.0,92,84,72,30.52,30.23,5,2,7,0.27
2013-1-29,74.5,60.1,46.5,59.7,53.1,44.4,95,79,56,30.24,30.05,10,4,13,0.00
2013-1-30,72.0,66.7,60.1,65.4,62.6,57.4,97,87,76,30.06,29.39,21,12,35,0.10
2013-1-31,67.6,47.9,36.4,62.8,32.5,21.6,92,58,32,30.02,29.43,19,9,25,0.33
2013-2-1,42.8,36.4,26.6,31.0,17.1,5.5,69,47,26,30.39,29.90,20,7,34,0.00
2013-2-2,44.6,34.1,20.8,37.5,18.0,9.1,87,53,35,30.41,30.04,12,3,19,0.01
2013-2-3,50.6,42.9,37.5,37.1,32.3,26.5,92,68,43,30.03,29.85,9,4,13,0.00
2013-2-4,48.4,38.8,27.5,28.9,25.9,22.8,87,62,39,30.14,29.97,6,2,8,0.00
2013-2-5,63.0,48.5,35.9,41.2,35.2,28.9,85,62,38,30.01,29.86,8,3,11,0.00
2013-2-6,66.3,50.6,35.5,39.2,32.3,24.9,89,54,22,30.26,29.95,7,2,10,0.00
2013-2-7,50.9,43.7,37.2,43.8,39.6,35.1,97,86,70,30.30,29.94,7,4,13,0.90
2013-2-8,54.8,46.1,41.1,47.2,41.8,29.6,98,86,59,30.04,29.75,13,7,21,0.48
2013-2-9,53.1,42.0,34.0,30.7,26.5,20.1,80,56,33,30.35,30.04,9,4,13,0.00
2013-2-10,52.8,42.4,31.2,42.0,26.9,21.3,85,55,37,30.48,30.20,8,2,11,0.02
2013-2-11,63.3,57.5,46.0,60.8,55.4,42.3,99,93,83,30.20,29.91,11,5,18,0.07
2013-2-12,62.1,54.8,48.3,54.4,40.2,32.1,94,61,34,30.07,29.88,9,3,13,0.00
2013-2-13,50.2,46.6,44.2,48.2,44.5,38.7,100,93,65,29.95,29.60,9,3,14,0.45
2013-2-14,52.0,43.2,36.0,38.5,34.8,32.8,89,73,51,30.06,29.82,6,2,8,0.00
2013-2-15,63.9,47.5,31.9,41.9,35.4,29.7,95,67,34,30.09,29.91,6,1,10,0.00
2013-2-16,47.4,37.4,31.6,37.4,33.4,29.0,96,86,66,29.94,29.80,8,4,11,0.56
2013-2-17,38.8,31.1,25.7,28.7,16.6,9.9,89,56,30,30.28,29.90,18,7,24,0.01
2013-2-18,50.3,35.8,20.2,28.2,21.1,14.4,88,58,32,30.42,30.27,8,3,11,0.31
2013-2-19,53.5,44.1,35.3,51.0,39.8,27.6,96,85,67,30.27,29.85,14,5,19,0.09
2013-2-20,53.5,41.3,34.7,41.0,24.3,16.9,95,53,25,30.12,29.95,11,5,16,0.00
2013-2-21,57.1,42.5,28.8,26.4,21.7,17.0,68,45,24,30.24,30.10,7,2,12,0.00
2013-2-22,43.3,36.1,32.6,35.9,32.9,25.5,99,89,50,30.34,30.12,7,2,10,0.63
2013-2-23,43.7,39.6,36.5,43.3,38.9,35.7,99,97,96,30.12,29.81,6,3,8,0.63
2013-2-24,63.8,51.5,43.1,46.9,39.6,28.8,99,69,33,30.01,29.78,10,4,13,0.03
2013-2-25,46.1,38.9,33.8,31.6,26.5,23.5,75,61,46,30.21,30.01,7,4,13,0.00
2013-2-26,59.9,47.4,36.8,59.9,44.9,28.5,100,91,72,30.12,29.54,8,4,12,0.92
2013-2-27,59.3,49.7,43.5,47.5,41.8,39.2,96,76,51,29.78,29.61,10,5,13,0.00
2013-2-28,50.2,43.9,38.0,39.9,32.9,27.8,92,67,43,29.84,29.68,11,4,12,0.00
2013-3-1,52.1,41.2,31.4,32.6,29.6,26.9,84,64,43,29.90,29.82,8,3,13,0.00
2013-3-2,50.8,40.3,29.8,30.7,27.3,20.9,89,61,43,29.91,29.79,8,3,13,0.00
2013-3-3,48.4,37.1,28.7,25.7,21.8,18.8,72,55,37,29.97,29.83,10,5,15,0.00
2013-3-4,51.7,38.0,26.5,24.4,19.1,15.8,71,49,25,30.11,29.97,10,4,13,0.00
2013-3-5,45.5,37.9,35.5,30.8,25.6,21.7,70,61,54,30.07,30.04,4,0,5,0.00
2013-3-6,47.6,44.6,39.2,35.0,31.4,27.1,69,60,51,30.00,29.67,17,8,28,0.01
2013-3-7,55.2,43.6,35.4,34.2,30.8,28.3,79,62,42,30.21,30.00,9,6,14,0.00
2013-3-8,58.0,45.2,33.5,30.9,27.2,25.8,75,52,31,30.27,30.12,12,6,17,0.00
2013-3-9,65.4,49.8,35.2,35.0,30.6,27.1,73,50,26,30.32,30.21,7,2,10,0.00
2013-3-10,68.3,53.6,37.8,34.4,29.0,18.5,77,44,17,30.31,30.19,6,1,10,0.00
2013-3-11,69.1,54.6,40.6,54.5,43.2,27.4,89,67,41,30.23,29.94,11,4,17,0.00
2013-3-12,71.7,62.4,52.8,63.0,55.8,37.2,98,81,51,29.92,29.71,12,7,19,0.33
2013-3-13,58.0,48.5,37.7,36.9,29.7,21.1,83,50,28,30.10,29.91,13,6,17,0.00
2013-3-14,52.2,40.9,30.9,27.0,22.5,19.4,65,49,33,30.23,30.09,12,6,16,0.00
2013-3-15,62.0,47.6,30.9,39.1,29.6,21.8,70,51,34,30.18,29.90,10,4,14,0.00
2013-3-16,78.3,63.8,49.6,53.3,46.4,38.0,70,55,37,29.89,29.64,11,5,16,0.00
2013-3-17,67.2,54.6,42.2,53.8,45.9,39.0,96,74,48,30.14,29.81,10,4,14,0.00
2013-3-18,45.5,41.7,38.1,43.7,40.4,37.3,100,95,90,30.17,29.88,9,3,16,0.57
2013-3-19,68.3,53.0,41.9,48.8,37.5,21.7,98,65,20,29.98,29.80,12,6,16,0.06
2013-3-20,56.3,48.7,43.3,24.9,19.6,15.1,46,32,21,30.10,29.76,8,4,14,0.00
2013-3-21,45.0,40.5,32.7,31.0,22.5,15.1,72,49,34,29.96,29.71,13,7,20,0.00
2013-3-22,52.9,39.9,24.8,26.2,18.3,13.7,72,44,25,30.08,29.95,8,4,12,0.00
2013-3-23,54.3,46.0,39.5,33.5,28.6,25.1,70,51,39,30.04,29.89,3,1,5,0.00
2013-3-24,42.5,39.6,36.3,39.2,35.9,30.5,97,87,65,29.93,29.54,9,3,12,0.53
2013-3-25,49.4,41.1,36.2,38.6,32.1,24.3,100,74,39,29.81,29.54,16,6,26,0.00
2013-3-26,49.7,42.6,34.4,31.2,28.2,26.3,74,57,46,30.09,29.81,9,6,13,0.00
2013-3-27,51.4,42.8,34.7,30.4,27.6,24.9,78,56,39,30.21,30.09,15,7,20,0.00
2013-3-28,58.1,45.4,33.7,31.2,27.3,25.1,74,51,29,30.28,30.13,12,6,16,0.00
2013-3-29,59.8,48.0,33.5,36.6,29.4,25.0,79,50,28,30.32,30.16,8,3,15,0.00
2013-3-30,65.8,54.4,42.4,46.3,40.2,30.6,80,59,46,30.23,30.07,5,2,10,0.00
2013-3-31,68.3,56.8,48.5,58.5,51.5,42.2,98,83,68,30.09,29.79,8,3,13,1.12
2013-4-1,73.9,61.7,55.6,55.5,49.1,40.3,98,69,30,29.91,29.78,11,3,13,0.12
2013-4-2,60.6,51.3,40.1,41.6,32.9,29.5,71,50,33,30.13,29.91,10,4,15,0.00
2013-4-3,62.0,51.6,43.1,36.4,26.5,21.2,63,39,23,30.27,30.09,8,4,12,0.00
2013-4-4,49.3,43.0,38.9,40.9,35.0,27.2,97,75,46,30.33,29.87,10,4,17,1.64
2013-4-5,63.1,49.9,39.6,50.1,44.6,38.8,100,83,61,30.00,29.85,7,3,11,0.03
2013-4-6,66.4,55.0,45.5,47.1,36.8,26.4,89,53,28,30.26,29.99,10,3,18,0.00
2013-4-7,72.0,55.7,36.4,50.4,40.8,33.7,92,61,35,30.26,30.09,8,2,15,0.00
2013-4-8,78.5,65.3,52.8,60.5,54.6,50.4,97,71,42,30.16,30.03,10,5,18,0.00
2013-4-9,84.3,70.8,58.2,63.0,59.3,56.0,97,70,42,30.16,30.03,7,4,9,0.00
2013-4-10,85.8,73.3,61.0,66.0,62.0,58.5,94,70,48,30.08,29.91,9,5,15,0.00
2013-4-11,82.3,71.2,61.3,68.4,62.2,58.2,96,75,48,29.97,29.77,9,5,12,0.02
2013-4-12,80.7,71.9,66.1,70.7,64.9,53.3,98,80,51,29.80,29.59,11,6,16,0.51
2013-4-13,77.8,66.8,54.5,53.3,44.3,40.8,75,46,28,29.98,29.72,9,3,10,0.00
2013-4-14,81.8,66.8,48.5,55.2,49.6,41.0,97,60,27,30.08,29.98,7,2,8,0.00
2013-4-15,73.1,66.6,61.2,59.8,57.7,52.7,88,74,60,30.17,29.98,7,2,9,0.00
2013-4-16,77.9,65.9,57.2,64.6,59.8,55.9,100,82,59,30.27,30.16,5,1,5,0.00
2013-4-17,82.4,70.3,58.5,67.9,63.0,57.5,98,79,59,30.21,30.07,7,2,11,0.00
2013-4-18,78.7,69.3,59.4,64.7,61.3,58.1,97,77,56,30.17,30.01,9,3,12,0.00
2013-4-19,82.8,71.4,65.2,70.3,66.4,63.6,97,85,61,30.02,29.70,16,8,23,0.49
2013-4-20,66.4,56.9,49.0,64.4,44.2,36.6,97,65,36,30.25,29.81,10,4,16,0.08
2013-4-21,66.2,52.9,42.7,46.2,42.5,40.4,94,71,41,30.45,30.25,9,3,16,0.00
2013-4-22,63.4,50.5,37.5,46.6,41.0,33.4,90,71,46,30.44,30.23,9,6,17,0.00
2013-4-23,71.4,56.3,47.4,54.1,48.8,45.4,96,78,50,30.25,30.10,6,2,8,0.00
2013-4-24,76.7,63.5,49.4,59.2,54.1,48.0,98,74,49,30.14,29.96,9,4,18,0.00
2013-4-25,64.1,62.1,59.8,59.6,58.1,52.6,91,87,74,30.09,30.00,5,2,6,0.00
2013-4-29,74.8,66.6,59.8,64.9,62.7,59.5,100,88,69,30.04,29.93,4,1,6,0.96
2013-4-30,67.7,62.6,57.7,62.9,60.2,55.7,99,92,79,30.14,29.97,6,2,8,0.01
2013-5-1,61.4,59.3,57.9,58.9,57.4,56.1,98,94,89,30.28,30.12,6,2,10,0.01
2013-5-2,65.1,59.8,56.2,59.6,56.9,53.1,97,90,80,30.29,30.22,6,2,8,0.00
2013-5-3,68.9,58.6,50.3,57.7,51.6,45.0,96,79,58,30.23,30.13,6,2,9,0.00
2013-5-4,65.0,55.9,49.5,54.6,50.2,45.4,92,82,67,30.17,30.03,6,3,13,0.00
2013-5-5,61.1,56.4,50.3,57.9,52.7,47.2,94,88,81,30.06,29.94,7,5,14,0.00
2013-5-6,73.9,61.5,56.9,68.1,59.5,54.8,99,93,79,29.97,29.80,6,2,8,1.03
2013-5-7,71.5,59.7,51.6,58.7,53.3,49.4,100,81,47,29.93,29.83,9,2,14,0.00
2013-5-8,74.0,62.3,52.6,62.6,56.8,50.8,98,84,60,29.99,29.90,6,1,8,0.04
2013-5-9,80.9,67.8,56.1,62.8,59.1,55.3,99,76,48,30.04,29.95,7,2,11,0.01
2013-5-10,85.6,73.6,58.7,65.6,60.9,56.4,94,67,43,30.05,29.92,9,3,15,0.00
2013-5-11,83.6,74.4,67.8,67.5,64.6,60.7,89,72,54,29.95,29.76,8,4,12,0.00
2013-5-12,75.6,67.6,57.6,64.5,53.0,41.0,95,62,38,29.99,29.77,8,4,12,0.04
2013-5-13,68.3,58.4,49.6,43.7,39.6,34.7,72,51,30,30.15,29.99,9,2,14,0.00
2013-5-14,72.1,59.3,44.0,48.2,42.3,37.8,84,56,31,30.24,30.06,7,2,11,0.00
2013-5-15,89.8,70.9,54.6,67.0,57.6,46.0,84,64,43,30.07,29.88,6,3,10,0.00
2013-5-16,86.6,75.6,64.8,65.4,62.4,57.4,88,65,38,29.95,29.87,7,2,10,0.00
2013-5-17,91.1,78.6,66.1,66.7,63.5,59.2,89,62,38,30.05,29.95,4,1,8,0.00
2013-5-18,86.6,73.1,65.4,71.0,66.0,62.6,96,80,50,30.11,30.03,4,1,6,0.07
2013-5-19,79.2,70.0,66.8,72.5,67.8,65.0,100,93,75,30.13,30.03,9,2,10,0.67
2013-5-20,76.6,70.7,67.4,71.7,68.9,67.4,100,94,81,30.09,30.00,7,3,10,0.41
2013-5-21,84.3,73.3,68.5,75.0,70.3,68.1,99,91,70,30.02,29.93,6,2,8,0.12
2013-5-22,84.2,74.3,67.8,71.7,68.4,65.7,98,83,60,30.01,29.89,11,4,16,0.00
2013-5-23,82.5,71.8,68.9,71.6,68.9,66.2,98,91,66,29.94,29.80,9,3,13,0.48
2013-5-24,73.9,66.7,55.5,68.3,55.0,41.4,98,69,38,30.15,29.78,12,5,19,0.01
2013-5-25,74.2,59.5,45.5,52.6,43.9,37.7,85,59,30,30.25,30.11,7,2,9,0.00
2013-5-26,75.2,62.6,53.4,55.5,47.5,42.3,89,60,39,30.26,30.15,6,2,7,0.00
2013-5-27,82.3,68.7,51.9,59.0,54.3,47.7,95,64,37,30.26,30.14,6,1,9,0.00
2013-5-28,83.6,72.8,61.7,68.9,63.8,58.9,93,75,55,30.23,30.12,8,4,13,0.00
2013-5-29,84.9,74.5,63.0,68.1,65.1,61.5,97,74,53,30.22,30.13,8,3,11,0.00
2013-5-30,88.9,76.5,63.2,69.9,66.3,61.9,98,73,50,30.25,30.14,6,2,10,0.00
2013-5-31,88.1,77.3,65.8,70.5,67.7,64.6,98,74,49,30.20,30.07,8,3,12,0.00
2013-6-1,87.4,77.0,67.5,71.4,68.3,66.3,98,77,51,30.12,30.00,8,4,11,0.00
2013-6-2,86.6,76.9,68.4,70.3,67.9,65.3,95,75,51,30.05,29.87,9,6,17,0.00
2013-6-3,80.7,72.7,66.5,74.7,70.6,65.2,98,93,79,29.94,29.80,9,3,10,1.14
2013-6-4,85.7,73.7,65.3,69.5,66.1,63.8,99,79,54,30.07,29.90,8,2,8,0.00
2013-6-5,88.4,74.8,63.3,66.2,62.6,60.4,95,69,41,30.11,29.98,4,1,8,0.00
2013-6-6,78.6,71.4,66.5,74.2,68.1,60.5,100,90,69,30.01,29.81,6,1,11,0.91
2013-6-7,78.7,71.9,68.9,77.9,71.0,68.6,100,97,90,29.83,29.43,10,2,13,2.50
2013-6-8,84.7,75.4,68.3,73.4,70.7,68.0,99,87,67,30.06,29.80,6,2,10,0.18
2013-6-9,88.0,77.2,69.4,75.8,71.7,68.5,99,85,60,30.13,30.03,7,1,9,0.03
2013-6-10,83.9,75.5,71.5,77.1,72.9,70.3,98,92,78,30.08,29.88,8,5,16,0.54
2013-6-11,86.1,76.8,69.8,72.0,69.2,66.4,97,79,54,29.93,29.87,8,3,12,0.00
2013-6-12,92.4,80.1,67.1,76.4,70.9,64.4,92,75,57,29.95,29.83,4,1,7,0.00
2013-6-13,95.7,80.1,68.2,77.9,71.9,65.0,95,78,44,29.84,29.57,21,4,21,0.11
2013-6-14,83.3,73.6,64.2,66.8,60.8,58.2,88,66,44,29.98,29.69,7,4,13,0.00
2013-6-15,86.2,73.4,61.1,66.6,61.6,58.1,95,69,43,30.10,29.99,6,2,9,0.00
2013-6-16,86.9,76.3,64.3,69.9,64.4,57.0,82,67,55,30.11,29.98,7,3,14,0.00
2013-6-17,86.6,77.0,70.3,73.9,69.1,64.5,91,77,61,30.02,29.90,7,4,11,0.00
2013-6-18,84.5,75.4,69.5,74.9,71.0,68.3,98,87,69,29.95,29.73,9,4,14,1.51
2013-6-19,85.4,74.7,66.3,72.1,68.3,65.7,99,82,58,30.08,29.84,5,2,12,0.03
2013-6-20,84.3,73.3,64.0,67.9,64.3,56.3,98,75,56,30.21,30.08,5,2,7,0.00
2013-6-21,87.4,72.9,58.3,67.5,61.2,55.8,95,69,40,30.22,30.15,5,2,11,0.00
2013-6-22,78.5,73.0,69.7,73.6,70.4,67.1,99,92,82,30.17,30.08,4,1,5,0.11
2013-6-23,88.6,75.8,69.7,76.3,72.1,68.8,99,89,61,30.18,30.09,4,1,6,0.58
2013-6-24,85.2,75.9,71.0,77.2,73.2,70.1,99,92,70,30.18,30.07,7,2,9,0.54
2013-6-25,89.9,75.8,69.7,76.6,71.6,68.7,97,87,63,30.11,29.98,7,3,11,0.00
2013-6-26,88.7,75.7,69.0,77.1,71.6,66.9,99,88,65,30.01,29.88,9,3,13,0.12
2013-6-27,89.8,75.5,67.9,80.1,72.3,67.0,99,91,66,29.89,29.70,11,4,15,0.44
2013-6-28,90.9,78.6,70.8,77.0,73.0,69.1,99,85,57,29.74,29.56,11,3,14,0.43
2013-6-29,85.7,77.6,68.9,76.4,73.0,68.5,100,87,69,29.71,29.58,7,3,10,0.87
2013-6-30,86.0,76.7,71.3,77.3,73.4,70.2,98,90,72,29.84,29.69,7,3,11,1.37
2013-7-1,83.0,75.6,69.9,76.5,72.9,69.6,100,92,77,29.91,29.81,8,3,13,1.23
2013-7-2,78.1,73.3,70.5,75.3,72.5,69.4,99,97,91,30.16,29.96,8,3,14,1.21
2013-7-3,84.1,76.8,72.5,78.0,74.7,71.8,100,94,76,30.22,30.13,7,3,11,0.22
2013-7-4,89.7,79.5,72.8,77.1,73.8,71.5,99,84,57,30.25,30.15,6,3,11,0.01
2013-7-5,90.0,79.8,71.2,77.9,74.2,70.6,99,84,62,30.25,30.14,6,3,11,0.00
2013-7-6,88.4,78.1,72.5,78.1,73.4,70.0,99,86,62,30.23,30.10,7,2,10,0.00
2013-7-7,88.4,79.0,69.5,77.1,73.3,68.8,99,84,64,30.16,30.03,7,3,13,0.00
2013-7-8,84.3,76.1,72.1,79.0,73.6,71.1,99,92,81,30.15,30.07,9,2,12,0.77
2013-7-9,86.0,76.1,72.2,79.1,74.3,71.0,100,94,75,30.13,30.04,10,2,14,0.47
2013-7-10,85.9,77.6,73.4,79.7,74.8,72.3,99,91,75,30.08,29.92,6,3,11,0.06
2013-7-11,85.5,75.3,71.6,76.1,72.9,71.3,99,93,72,29.95,29.85,6,3,11,0.66
2013-7-12,77.6,72.6,70.6,75.0,71.7,70.1,100,97,86,29.99,29.84,7,1,10,1.65
2013-7-13,79.5,73.6,70.6,79.2,73.0,70.3,100,98,89,30.14,29.98,4,1,8,1.34
2013-7-14,92.8,78.2,70.2,79.3,74.4,69.9,100,89,60,30.26,30.14,10,1,18,0.39
2013-7-15,94.9,81.4,71.3,78.5,74.2,71.0,100,81,52,30.29,30.21,3,1,6,0.00
2013-7-16,95.9,82.2,70.9,78.7,74.2,69.8,98,79,55,30.24,30.14,9,1,10,0.00
2013-7-17,97.1,85.9,75.1,80.0,75.5,72.8,97,74,47,30.18,30.06,5,1,7,0.00
2013-7-18,97.8,82.5,75.5,80.1,76.1,74.0,98,83,53,30.11,30.01,5,1,12,0.00
2013-7-19,89.8,81.8,74.5,78.5,75.2,72.6,97,82,59,30.08,29.95,7,3,14,0.00
2013-7-20,88.5,80.3,75.1,76.9,74.2,72.6,93,82,64,30.01,29.89,8,4,13,0.00
2013-7-21,88.1,78.8,71.6,78.2,73.8,70.4,97,85,68,29.98,29.87,8,3,13,0.79
2013-7-22,89.2,78.4,72.2,79.2,75.0,71.9,100,90,70,29.93,29.79,4,1,6,0.02
2013-7-23,92.6,80.5,73.8,77.3,74.0,72.3,96,82,61,29.83,29.69,6,3,12,0.00
2013-7-24,94.0,81.6,72.3,77.7,73.5,70.5,98,79,52,29.81,29.69,5,1,5,0.13
2013-7-25,80.5,74.6,69.6,72.8,70.8,67.8,98,89,76,30.00,29.77,5,2,8,0.03
2013-7-26,89.9,77.0,64.4,71.8,67.0,63.5,98,74,47,30.08,29.98,4,1,6,0.00
2013-7-27,87.1,75.5,68.1,75.4,70.9,67.1,99,87,65,30.03,29.91,8,1,14,0.28
2013-7-28,86.7,77.0,70.4,77.6,72.9,69.7,100,88,62,29.98,29.89,7,2,12,0.28
2013-7-29,90.2,79.4,71.9,73.7,71.6,69.9,97,79,53,30.12,29.96,6,2,7,0.00
2013-7-30,93.7,78.8,66.6,73.9,69.0,62.9,95,74,45,30.18,30.09,4,0,5,0.00
2013-7-31,84.0,76.8,71.8,76.6,72.7,69.7,99,88,74,30.11,29.98,6,1,8,0.02
2013-8-1,85.7,76.0,71.0,77.2,72.7,69.9,98,90,71,29.99,29.83,5,1,6,0.05
2013-8-2,93.0,80.4,71.3,78.0,73.7,70.3,98,82,56,29.99,29.87,3,1,5,0.00
2013-8-3,89.6,79.8,72.7,79.7,75.7,71.5,98,88,68,30.00,29.87,6,2,9,0.59
2013-8-4,87.7,77.1,68.4,74.6,70.4,65.2,100,82,53,30.00,29.85,7,2,10,0.01
2013-8-5,88.5,75.7,65.5,70.6,66.6,62.5,97,76,45,30.06,29.97,6,1,9,0.00
2013-8-6,84.6,75.2,67.3,72.0,68.3,64.9,98,80,63,30.04,29.97,6,2,11,0.08
2013-8-7,86.1,77.3,69.5,73.4,70.2,67.1,96,80,59,30.08,30.00,6,1,11,0.00
2013-8-8,91.4,81.5,70.4,76.5,73.2,69.5,98,77,55,30.04,29.97,4,1,7,0.00
2013-8-9,92.0,81.9,74.2,79.0,76.2,73.6,99,84,63,30.03,29.95,7,2,11,0.00
2013-8-10,94.7,81.1,74.5,80.6,75.6,71.5,97,85,58,30.07,29.97,12,2,15,0.00
2013-8-11,94.2,82.0,72.1,79.7,75.0,71.5,98,81,60,30.08,29.97,5,1,7,0.00
2013-8-12,95.4,82.9,74.3,77.4,74.6,71.9,98,78,49,30.01,29.90,5,1,7,0.00
2013-8-13,91.0,79.8,73.5,79.8,75.1,72.0,98,87,65,29.92,29.74,9,3,20,0.46
2013-8-14,77.9,72.5,63.2,73.1,67.6,60.2,98,85,73,30.06,29.79,5,2,10,0.01
2013-8-15,80.5,67.6,60.7,63.6,59.7,57.1,91,77,50,30.13,30.04,5,2,8,0.00
2013-8-16,77.6,66.8,60.7,65.2,61.7,58.5,94,84,56,30.14,30.06,5,1,7,0.01
2013-8-17,73.5,68.6,64.7,72.8,67.3,61.7,99,96,89,30.14,30.07,5,3,8,0.34
2013-8-18,82.8,72.9,67.8,73.0,69.6,65.5,100,90,70,30.34,30.09,11,2,11,0.00
2013-8-19,73.1,69.2,65.5,72.2,68.1,64.0,99,96,91,30.32,30.07,8,1,8,1.10
2013-8-20,88.3,76.5,70.6,76.4,72.7,70.2,99,89,66,30.16,30.08,4,0,6,0.00
2013-8-21,90.6,75.8,70.4,79.3,72.9,69.5,99,92,66,30.20,30.08,9,1,11,0.06
2013-8-22,90.0,78.3,69.9,77.1,72.7,69.6,100,85,59,30.12,29.96,7,2,8,0.00
2013-8-23,89.1,78.0,69.9,75.9,72.0,69.1,99,83,60,30.01,29.89,7,2,8,0.00
2013-8-24,81.6,73.0,65.3,70.0,63.6,60.3,93,74,50,30.27,30.01,9,4,15,0.03
2013-8-25,79.2,69.8,62.6,64.1,61.5,57.0,96,77,48,30.36,30.26,7,3,14,0.00
2013-8-26,82.4,69.6,57.3,63.4,60.2,56.2,98,75,47,30.29,30.09,4,1,6,0.00
2013-8-27,85.9,74.6,62.5,75.7,66.9,57.3,93,78,64,30.10,29.94,5,2,6,0.00
2013-8-28,84.9,77.4,69.7,78.0,73.9,69.1,99,90,73,29.96,29.85,5,1,10,0.00
2013-8-29,84.5,78.0,72.4,75.5,73.5,70.6,94,86,73,29.98,29.81,6,3,9,0.00
2013-8-30,87.7,75.3,65.9,72.9,68.7,65.3,99,82,54,30.03,29.92,4,1,7,0.00
2013-8-31,86.7,76.3,68.0,74.7,70.9,67.4,99,85,61,29.96,29.84,8,3,14,0.00
2013-9-1,90.2,78.7,71.0,78.3,73.7,69.9,99,86,63,29.88,29.74,9,3,12,0.57
2013-9-2,87.3,77.9,71.1,77.9,73.9,70.5,99,88,68,29.87,29.77,5,2,7,0.01
2013-9-3,87.3,76.2,70.9,78.6,72.7,69.0,98,89,62,29.91,29.77,5,1,7,0.03
2013-9-4,86.6,75.9,68.1,75.1,71.3,67.1,98,86,64,30.05,29.91,4,1,7,0.00
2013-9-5,88.2,77.2,69.2,74.8,69.4,63.3,99,79,51,30.06,29.99,6,1,9,0.01
2013-9-6,82.3,73.4,66.3,68.5,63.4,59.2,91,72,53,30.13,30.03,6,3,12,0.00
2013-9-7,84.7,71.6,60.4,68.1,63.4,59.3,96,77,53,30.11,29.95,1,0,4,0.00
2013-9-8,89.4,75.4,63.6,69.4,65.9,62.1,96,75,45,29.96,29.88,5,1,7,0.00
2013-9-9,89.0,77.0,66.3,72.5,68.8,64.4,95,77,55,30.12,29.96,4,0,9,0.01
2013-9-10,90.0,77.9,67.4,72.7,69.6,66.7,98,78,50,30.20,30.12,6,1,8,0.00
2013-9-11,88.6,77.2,68.0,72.9,69.6,66.0,98,79,50,30.18,30.05,5,0,9,0.00
2013-9-12,91.1,76.9,68.7,74.8,70.5,67.2,98,82,57,30.05,29.77,10,2,12,0.75
2013-9-13,84.8,75.4,68.8,71.4,65.7,58.3,98,74,50,29.84,29.72,7,2,11,0.01
2013-9-14,76.9,67.5,60.0,59.4,54.5,49.9,86,64,46,30.10,29.84,8,3,15,0.00
2013-9-15,82.4,68.0,57.0,65.5,60.3,54.1,97,78,54,30.22,30.09,3,0,6,0.00
2013-9-16,84.6,74.0,67.2,72.5,66.4,61.8,98,79,48,30.14,30.00,8,2,12,0.34
2013-9-17,75.1,67.4,59.6,62.0,57.1,53.8,86,71,50,30.28,30.14,9,4,13,0.00
2013-9-18,73.8,61.7,52.4,56.8,53.5,50.0,92,76,49,30.27,30.15,5,2,8,0.00
2013-9-19,77.8,66.2,55.0,63.8,58.6,53.0,95,78,56,30.17,30.06,4,1,9,0.00
2013-9-20,67.8,65.9,63.9,66.2,63.7,59.8,98,93,79,30.08,29.94,3,0,6,0.20
2013-9-21,78.6,70.2,64.9,72.8,68.3,64.6,100,94,80,29.95,29.70,8,2,12,0.75
2013-9-22,77.4,67.8,61.6,69.4,63.2,57.9,100,86,62,29.87,29.66,5,2,14,2.76
2013-9-23,72.4,63.6,55.5,61.2,55.9,51.7,94,77,57,30.05,29.87,4,1,8,0.00
2013-9-24,76.3,63.7,54.1,62.8,57.4,53.0,97,82,57,30.08,29.93,4,1,6,0.00
2013-9-25,73.7,64.6,54.8,63.4,59.5,54.0,98,85,64,29.94,29.84,3,1,5,0.00
2013-9-26,75.6,66.9,59.2,62.9,59.2,54.1,97,78,49,30.00,29.84,7,2,10,0.00
2013-9-27,73.1,63.8,56.9,62.0,57.5,54.6,97,81,58,30.15,30.00,7,3,11,0.00
2013-9-28,74.0,62.9,54.4,60.4,56.6,53.3,97,81,59,30.22,30.13,4,1,11,0.01
2013-9-29,73.9,63.3,54.5,60.8,56.8,53.4,97,81,57,30.14,30.00,5,1,8,0.00
2013-9-30,76.1,63.3,55.9,61.6,57.3,54.3,98,83,49,30.07,29.97,3,1,6,0.00
2013-10-1,81.1,66.4,53.2,65.6,59.0,52.1,97,79,51,30.11,30.00,4,1,6,0.00
2013-10-2,83.3,70.8,60.1,66.6,62.1,58.1,94,76,48,30.10,30.01,5,1,8,0.00
2013-10-3,83.7,71.8,60.3,68.6,64.1,59.2,98,78,54,30.11,30.03,7,2,10,0.00
2013-10-4,84.9,73.1,63.4,70.3,65.8,62.5,98,80,49,30.11,30.02,5,1,7,0.00
2013-10-5,88.0,75.1,63.5,70.1,66.4,62.6,98,77,49,30.09,30.00,6,2,9,0.00
2013-10-6,83.6,72.5,65.8,73.6,69.2,65.2,99,90,67,30.05,29.91,7,2,10,0.00
2013-10-7,76.1,71.7,65.8,73.9,70.2,60.0,98,95,81,29.95,29.83,9,4,12,0.75
2013-10-8,66.0,58.8,55.2,60.2,52.9,48.4,95,81,66,30.16,29.93,13,6,17,0.02
2013-10-9,62.9,58.8,55.4,57.3,54.4,51.4,96,85,80,30.14,30.04,9,6,18,0.03
2013-10-10,60.5,57.0,53.8,59.6,55.9,52.5,98,96,92,30.04,29.91,8,6,14,0.12
2013-10-11,67.6,62.4,59.1,63.0,60.4,58.0,97,93,83,29.94,29.88,5,2,8,0.00
2013-10-12,67.8,64.4,61.4,65.0,62.3,59.7,96,93,87,30.04,29.92,5,2,7,0.00
2013-10-13,68.0,64.5,62.3,64.8,63.1,61.7,98,95,89,30.15,30.04,5,3,11,0.23
2013-10-14,66.1,63.1,58.5,63.4,61.2,57.1,99,94,87,30.20,30.13,8,4,13,0.01
2013-10-15,70.3,62.6,54.8,63.1,59.0,54.0,97,88,75,30.16,30.02,6,3,10,0.00
2013-10-16,68.9,65.1,62.2,64.1,62.3,61.3,100,91,80,30.03,29.94,3,1,5,0.00
2013-10-17,76.5,65.7,60.1,67.0,62.7,59.2,97,90,71,29.95,29.83,6,2,8,0.00
2013-10-18,68.8,63.7,59.1,65.4,56.5,49.1,96,78,62,30.01,29.85,6,2,10,0.00
2013-10-19,67.6,63.8,61.2,65.5,61.7,57.0,98,93,84,29.95,29.81,5,1,7,0.01
2013-10-20,65.9,57.4,49.6,59.4,49.1,42.3,96,75,53,30.10,29.88,7,2,12,0.00
2013-10-21,67.6,54.9,44.0,52.6,47.4,42.4,97,78,47,30.15,29.99,3,1,7,0.00
2013-10-22,62.9,58.2,52.7,59.6,55.3,50.0,98,90,86,30.00,29.80,4,1,6,0.00
2013-10-23,60.7,57.2,49.1,58.8,50.9,35.0,98,82,44,29.99,29.68,11,5,16,0.00
2013-10-24,58.5,48.4,39.5,40.9,36.9,33.4,82,66,44,30.17,29.99,8,3,13,0.00
2013-10-25,55.0,47.3,40.3,39.5,33.8,29.4,83,61,38,30.35,30.16,8,3,12,0.00
2013-10-26,59.0,46.0,32.9,38.8,34.6,30.0,92,66,44,30.35,30.08,7,2,12,0.00
2013-10-27,68.0,54.4,42.7,49.8,43.7,37.7,90,69,46,30.11,30.03,5,1,9,0.00
2013-10-28,64.2,55.4,47.0,56.1,50.6,44.5,96,84,69,30.25,30.10,3,0,5,0.00
2013-10-29,73.7,60.3,50.2,59.7,55.0,49.4,98,84,58,30.32,30.23,3,1,5,0.00
2013-10-30,74.2,62.1,53.0,60.8,56.9,51.9,100,84,60,30.29,30.15,7,2,11,0.00
2013-10-31,74.3,64.6,55.9,65.2,58.5,55.1,98,82,57,30.18,29.92,11,4,20,0.00
2013-11-1,74.4,68.9,64.3,67.9,65.8,62.8,98,90,78,29.92,29.67,12,6,18,0.89
2013-11-2,69.7,62.7,56.2,62.6,53.0,44.0,97,73,45,29.90,29.67,10,4,13,0.01
2013-11-3,62.5,53.5,45.4,44.5,40.3,37.9,75,62,44,30.35,29.90,8,4,13,0.00
2013-11-4,54.8,46.4,39.9,39.5,35.5,32.6,80,67,44,30.53,30.34,8,4,12,0.00
2013-11-5,57.7,49.6,40.7,50.4,43.9,35.6,89,81,72,30.51,30.41,7,4,11,0.00
2013-11-6,69.7,58.9,48.4,59.2,54.0,47.4,98,85,65,30.41,30.10,3,1,5,0.00
2013-11-7,68.9,61.0,46.9,63.7,55.7,35.5,99,84,54,30.10,29.90,8,3,14,0.13
2013-11-8,56.6,47.1,38.6,35.7,31.5,27.7,82,56,34,30.32,30.07,8,3,13,0.00
2013-11-9,59.5,47.5,35.8,41.7,34.8,29.5,82,63,40,30.37,30.18,8,2,9,0.00
2013-11-10,72.0,55.3,42.0,44.1,38.9,31.1,83,57,28,30.21,30.05,7,3,10,0.00
2013-11-11,60.0,48.4,38.4,38.9,32.8,30.4,80,56,36,30.34,30.13,5,1,8,0.00
2013-11-12,62.3,44.7,34.2,41.6,34.5,21.0,90,69,42,30.40,30.05,12,4,18,0.02
2013-11-13,44.7,35.6,29.3,26.7,21.1,17.7,85,57,36,30.52,30.40,7,3,11,0.00
2013-11-14,56.6,41.3,27.2,28.6,25.0,21.6,85,55,29,30.48,30.34,7,2,11,0.00
2013-11-15,62.7,49.2,33.4,49.5,39.3,24.0,86,70,46,30.36,30.20,5,1,7,0.00
2013-11-16,70.3,58.6,52.2,61.4,55.1,48.2,99,88,72,30.25,30.18,4,1,5,0.00
2013-11-17,71.7,63.0,55.3,66.6,60.1,54.5,99,91,71,30.20,29.89,9,2,11,0.11
2013-11-18,75.0,67.3,56.2,67.8,55.6,32.8,98,69,38,29.92,29.77,10,4,18,0.03
2013-11-19,56.1,49.8,42.4,33.2,30.9,28.9,65,49,37,30.30,29.92,8,4,15,0.00
2013-11-20,53.2,44.9,38.0,39.9,34.5,29.6,84,67,55,30.42,30.29,9,5,15,0.00
2013-11-21,63.2,51.8,43.5,53.4,45.9,39.1,89,81,69,30.47,30.36,8,2,10,0.00
2013-11-22,70.5,60.7,49.9,63.0,56.8,48.5,100,87,75,30.37,30.07,7,2,9,0.00
2013-11-23,62.0,56.7,44.2,61.0,47.0,23.6,98,72,42,30.15,30.01,8,3,13,0.01
2013-11-24,44.2,34.1,26.7,25.4,12.6,4.8,58,42,27,30.54,30.15,10,5,14,0.00
2013-11-25,42.0,32.0,22.5,22.4,14.8,9.4,69,50,27,30.60,30.38,5,1,7,0.00
2013-11-26,67.1,47.9,35.6,66.2,41.8,18.8,100,80,49,30.38,29.55,12,5,16,0.80
2013-11-27,67.1,43.3,31.1,65.9,39.7,19.6,100,88,60,30.16,29.47,12,6,18,0.88
2013-11-28,45.3,34.2,25.3,25.7,21.4,17.0,79,60,41,30.49,30.16,9,3,13,0.00
2013-11-29,51.5,38.9,28.3,32.2,27.2,23.5,87,64,44,30.62,30.48,8,2,13,0.00
2013-11-30,49.2,38.6,30.4,36.2,31.0,24.9,85,75,59,30.62,30.36,5,3,8,0.00
2013-12-1,59.0,45.2,35.0,44.2,38.4,31.5,92,78,57,30.36,30.01,5,1,8,0.00
2013-12-2,59.2,48.7,41.0,46.8,42.7,38.0,94,81,55,30.01,29.81,3,1,5,0.00
2013-12-3,55.1,48.2,36.3,48.2,42.9,34.6,96,83,68,29.99,29.86,7,2,9,0.00
2013-12-4,62.9,56.5,51.5,58.0,53.4,47.1,97,89,78,30.09,29.98,4,1,6,0.00
2013-12-5,67.8,60.6,53.8,64.3,59.3,53.1,99,96,88,30.13,30.04,7,3,10,0.00
2013-12-6,77.5,69.6,64.2,66.6,64.2,62.2,97,84,67,30.08,29.96,13,8,19,0.01
2013-12-7,68.3,50.4,42.6,65.1,46.1,33.7,96,85,70,30.43,29.99,12,6,17,0.27
2013-12-8,42.6,36.2,34.0,34.6,33.4,31.6,97,90,71,30.44,30.28,8,4,13,0.20
2013-12-9,47.1,41.1,34.8,46.8,40.6,34.0,99,98,97,30.28,30.06,6,2,8,0.03
2013-12-10,48.7,45.1,32.0,48.4,42.7,28.9,100,92,67,30.33,29.90,9,2,13,0.51
2013-12-11,48.7,37.8,29.2,31.8,28.1,23.4,95,70,47,30.46,30.29,5,1,10,0.00
2013-12-12,44.7,37.3,28.8,30.4,23.7,15.1,86,60,31,30.41,30.27,8,3,12,0.00
2013-12-13,51.8,38.8,26.0,30.2,24.2,17.2,90,58,34,30.40,30.27,7,2,12,0.00
2013-12-14,47.1,42.8,38.2,46.0,37.2,28.3,100,82,59,30.30,29.77,6,2,10,0.61
2013-12-15,54.1,44.4,37.9,44.8,38.6,29.9,98,81,56,30.07,29.69,9,4,11,0.04
2013-12-16,56.1,43.1,31.2,37.3,33.3,27.8,88,70,47,30.18,30.07,5,3,8,0.00
2013-12-17,62.4,48.2,35.6,42.7,38.1,33.2,92,70,41,30.12,29.89,9,4,13,0.00
2013-12-18,49.1,42.9,34.0,39.3,26.0,19.5,77,52,36,30.29,30.02,9,4,14,0.00
2013-12-19,61.0,45.3,31.7,34.8,30.2,24.5,82,58,33,30.34,30.23,7,3,11,0.00
2013-12-20,67.6,54.2,41.7,55.8,46.4,34.6,92,76,57,30.25,30.11,8,2,10,0.00
2013-12-21,71.1,61.4,51.3,66.2,58.4,49.5,98,90,79,30.15,30.04,9,5,18,0.00
2013-12-22,76.9,70.1,64.6,68.9,65.9,62.2,97,87,70,30.08,30.01,11,6,17,0.01
2013-12-23,70.3,61.7,48.7,68.1,60.5,46.2,99,96,91,30.12,29.97,11,4,16,1.41
2013-12-24,48.8,42.1,31.2,44.8,32.7,17.7,95,70,51,30.44,30.08,10,5,14,0.00
2013-12-25,40.1,31.5,25.5,24.2,17.5,13.6,80,57,36,30.54,30.39,7,2,10,0.00
2013-12-26,49.9,38.3,30.3,35.1,30.0,23.8,86,73,51,30.39,30.25,5,2,6,0.01
2013-12-27,52.6,41.1,32.7,31.4,26.4,22.9,80,57,38,30.45,30.35,4,1,7,0.00
2013-12-28,59.1,45.0,30.3,36.9,30.1,25.9,85,59,32,30.40,30.15,4,1,7,0.00
2013-12-29,65.6,52.1,44.6,65.3,50.1,36.1,99,93,63,30.15,29.66,13,5,17,1.30
2013-12-30,55.6,47.2,40.6,45.1,41.2,37.3,98,81,58,30.13,29.91,7,2,8,0.01
2013-12-31,50.1,43.7,37.8,38.0,32.1,24.8,84,65,38,30.35,30.10,7,3,11,0.00
2014-1-1,49.8,41.8,33.0,37.0,30.0,25.9,89,65,40,30.42,30.15,5,1,7,0.00
2014-1-2,48.0,44.7,40.6,47.5,41.2,33.2,98,88,68,30.15,29.57,11,2,12,0.22